User: anonymous   Login
Location: Albany
(42.6526°N, 73.7562°W)
Time: 14:33:58
(UTC+00:00)
Language:

Cosmos 158 Rocket - Orbit

View from above orbital plane
View from above orbital plane
View from above satellite
View from above satellite

Ground track
Ground track

The orbit data is extracted from the following two-line orbital elements,

1  2802U 67045B   20021.57700170 -.00000049 +00000-0 -60505-5 0  9992
2  2802 074.0093 201.0416 0066003 026.6312 333.8209 14.43756153765843
Epoch (UTC): 21 January 2020 13:50:52
Eccentricity: 0.0066003
inclination: 74.0093°
perigee height: 699 km
apogee height: 793 km
right ascension of ascending node: 201.0416°
argument of perigee: 26.6312°
revolutions per day: 14.43756153
mean anomaly at epoch: 333.8209°
orbit number at epoch: 76584

The dashed part of the orbit path shows where the satellite is in the earth's shadow,  

DLR